QPF
0.02 0.03 0.02 0.01 0.01 0.01 0.00 0.00 0.00 0.00 0.00 0.00 0.00 0.00 0.01 0.00 0.01 0.01 0.02 0.03 0.04 0.06 0.07 0.06 0.06 0.05 0.04 0.04 0.06 0.08 0.13 0.16 0.17 0.15 0.12 0.09 0.08 0.08 0.11 0.17 0.20 0.20 0.20 0.23
0.01 0.02 0.01 0.00 0.00 0.00 0.00 0.00 0.00 0.00 0.00 0.00 0.00 0.00 0.01 0.00 0.01 0.01 0.03 0.04 0.05 0.06 0.07 0.06 0.06 0.05 0.04 0.04 0.04 0.06 0.10 0.12 0.15 0.17 0.14 0.10 0.08 0.08 0.09 0.13 0.20 0.21 0.20 0.23
0.01 0.01 0.01 0.00 0.00 0.00 0.00 0.00 0.00 0.00 0.00 0.00 0.00 0.00 0.00 0.00 0.00 0.01 0.02 0.03 0.04 0.06 0.07 0.08 0.08 0.06 0.06 0.04 0.03 0.04 0.07 0.07 0.09 0.15 0.17 0.14 0.12 0.09 0.10 0.12 0.16 0.20 0.21 0.19
0.01 0.01 0.01 0.00 0.00 0.00 0.00 0.00 0.01 0.01 0.02 0.01 0.01 0.01 0.00 0.00 0.00 0.00 0.01 0.02 0.02 0.03 0.04 0.06 0.09 0.08 0.06 0.05 0.04 0.05 0.05 0.06 0.07 0.11 0.17 0.18 0.15 0.10 0.08 0.10 0.14 0.18 0.21 0.20
0.00 0.00 0.00 0.00 0.00 0.00 0.00 0.00 0.01 0.01 0.02 0.02 0.02 0.02 0.01 0.00 0.00 0.00 0.00 0.01 0.01 0.02 0.03 0.03 0.05 0.06 0.06 0.06 0.06 0.05 0.05 0.05 0.07 0.11 0.15 0.19 0.19 0.15 0.11 0.10 0.13 0.17 0.21 0.23
0.00 0.00 0.00 0.00 0.00 0.01 0.01 0.01 0.01 0.01 0.01 0.02 0.02 0.01 0.00 0.00 0.01 0.00 0.00 0.00 0.01 0.02 0.03 0.03 0.03 0.04 0.04 0.05 0.06 0.05 0.05 0.05 0.06 0.09 0.13 0.17 0.18 0.18 0.17 0.15 0.15 0.19 0.24 0.27
0.00 0.00 0.00 0.00 0.00 0.00 0.01 0.01 0.01 0.00 0.00 0.00 0.00 0.00 0.00 0.00 0.00 0.01 0.01 0.01 0.01 0.02 0.02 0.02 0.02 0.03 0.03 0.05 0.07 0.07 0.07 0.06 0.07 0.10 0.12 0.15 0.17 0.18 0.18 0.20 0.21 0.22 0.26 0.30
0.00 0.00 0.00 0.00 0.00 0.00 0.00 0.00 0.01 0.00 0.00 0.00 0.00 0.00 0.00 0.00 0.00 0.00 0.01 0.01 0.01 0.02 0.02 0.01 0.02 0.02 0.03 0.04 0.04 0.04 0.05 0.08 0.09 0.12 0.13 0.15 0.16 0.18 0.19 0.20 0.23 0.26 0.26 0.28
0.00 0.00 0.00 0.00 0.00 0.00 0.00 0.00 0.00 0.00 0.00 0.00 0.00 0.00 0.00 0.00 0.00 0.00 0.00 0.00 0.01 0.01 0.01 0.01 0.02 0.02 0.03 0.04 0.05 0.05 0.06 0.09 0.10 0.13 0.14 0.15 0.16 0.17 0.18 0.20 0.24 0.26 0.30 0.30
0.00 0.00 0.00 0.00 0.00 0.00 0.00 0.00 0.00 0.00 0.01 0.00 0.00 0.00 0.00 0.00 0.00 0.00 0.00 0.00 0.01 0.01 0.01 0.01 0.01 0.02 0.03 0.04 0.06 0.07 0.08 0.09 0.12 0.13 0.17 0.16 0.15 0.16 0.17 0.19 0.23 0.28 0.31 0.31
0.00 0.00 0.00 0.00 0.00 0.00 0.00 0.00 0.00 0.00 0.01 0.01 0.01 0.00 0.00 0.00 0.00 0.00 0.00 0.00 0.01 0.01 0.01 0.01 0.01 0.01 0.03 0.04 0.05 0.06 0.08 0.09 0.11 0.13 0.15 0.16 0.17 0.18 0.17 0.19 0.21 0.25 0.32 0.32
0.00 0.02 0.01 0.00 0.00 0.00 0.00 0.00 0.00 0.01 0.01 0.01 0.01 0.00 0.00 0.00 0.00 0.00 0.00 0.00 0.01 0.01 0.02 0.02 0.01 0.01 0.02 0.04 0.06 0.07 0.08 0.10 0.11 0.10 0.12 0.15 0.17 0.19 0.18 0.17 0.20 0.23 0.25 0.31
0.02 0.04 0.03 0.01 0.00 0.00 0.00 0.00 0.00 0.00 0.02 0.02 0.02 0.00 0.00 0.00 0.00 0.00 0.00 0.00 0.01 0.01 0.02 0.02 0.02 0.01 0.02 0.04 0.07 0.07 0.08 0.08 0.09 0.08 0.09 0.11 0.14 0.15 0.16 0.17 0.19 0.20 0.21 0.26
0.04 0.05 0.03 0.01 0.00 0.00 0.01 0.00 0.00 0.01 0.03 0.02 0.00 0.00 0.00 0.00 0.00 0.00 0.00 0.00 0.01 0.01 0.02 0.02 0.02 0.01 0.01 0.03 0.04 0.05 0.06 0.07 0.08 0.09 0.10 0.11 0.13 0.15 0.15 0.17 0.21 0.20 0.20 0.23
0.06 0.07 0.02 0.01 0.00 0.00 0.01 0.00 0.00 0.01 0.01 0.01 0.00 0.00 0.00 0.00 0.00 0.00 0.00 0.00 0.00 0.01 0.01 0.02 0.02 0.02 0.01 0.02 0.03 0.03 0.04 0.06 0.08 0.09 0.12 0.15 0.15 0.13 0.15 0.17 0.21 0.22 0.21 0.22
0.05 0.05 0.02 0.01 0.00 0.00 0.00 0.00 0.00 0.00 0.00 0.00 0.00 0.00 0.00 0.00 0.00 0.00 0.00 0.00 0.00 0.01 0.01 0.01 0.01 0.02 0.01 0.02 0.02 0.03 0.03 0.06 0.08 0.08 0.10 0.17 0.16 0.13 0.13 0.14 0.18 0.23 0.25 0.24
0.05 0.05 0.05 0.03 0.00 0.01 0.01 0.00 0.00 0.00 0.00 0.00 0.00 0.00 0.00 0.00 0.00 0.00 0.00 0.00 0.00 0.01 0.01 0.01 0.01 0.01 0.01 0.01 0.02 0.02 0.03 0.03 0.05 0.07 0.09 0.16 0.18 0.14 0.13 0.13 0.17 0.22 0.26 0.26
0.03 0.04 0.07 0.05 0.02 0.02 0.01 0.00 0.00 0.00 0.00 0.00 0.00 0.00 0.00 0.00 0.00 0.00 0.00 0.00 0.00 0.01 0.01 0.01 0.01 0.01 0.01 0.01 0.01 0.02 0.03 0.03 0.04 0.05 0.08 0.14 0.20 0.17 0.14 0.14 0.16 0.20 0.24 0.26
0.01 0.03 0.06 0.06 0.03 0.01 0.00 0.00 0.00 0.00 0.00 0.00 0.00 0.00 0.00 0.00 0.00 0.00 0.00 0.00 0.00 0.00 0.01 0.02 0.02 0.01 0.01 0.01 0.01 0.02 0.02 0.03 0.04 0.06 0.08 0.13 0.19 0.19 0.15 0.16 0.17 0.20 0.22 0.23
0.02 0.03 0.07 0.06 0.04 0.01 0.00 0.00 0.00 0.00 0.00 0.00 0.00 0.00 0.00 0.00 0.00 0.00 0.00 0.00 0.00 0.00 0.00 0.01 0.02 0.01 0.01 0.01 0.01 0.02 0.03 0.03 0.04 0.08 0.10 0.13 0.15 0.17 0.16 0.18 0.18 0.20 0.22 0.22
0.02 0.04 0.06 0.04 0.04 0.01 0.00 0.00 0.00 0.00 0.00 0.00 0.00 0.00 0.00 0.00 0.00 0.00 0.00 0.00 0.00 0.00 0.01 0.01 0.02 0.02 0.02 0.02 0.02 0.03 0.04 0.05 0.06 0.09 0.11 0.12 0.13 0.14 0.15 0.17 0.17 0.17 0.18 0.19
0.01 0.02 0.02 0.03 0.05 0.02 0.00 0.00 0.00 0.00 0.00 0.00 0.00 0.00 0.00 0.00 0.00 0.00 0.00 0.00 0.01 0.01 0.01 0.01 0.02 0.02 0.02 0.02 0.03 0.04 0.06 0.06 0.07 0.09 0.10 0.12 0.13 0.11 0.12 0.15 0.15 0.13 0.14 0.15
0.00 0.00 0.00 0.01 0.01 0.00 0.00 0.00 0.01 0.01 0.01 0.00 0.00 0.00 0.00 0.01 0.00 0.00 0.00 0.01 0.01 0.01 0.01 0.01 0.01 0.02 0.02 0.02 0.03 0.03 0.04 0.05 0.07 0.07 0.09 0.12 0.14 0.13 0.13 0.14 0.14 0.13 0.12 0.12
0.00 0.00 0.00 0.00 0.00 0.00 0.01 0.01 0.00 0.00 0.00 0.00 0.00 0.00 0.01 0.01 0.01 0.01 0.01 0.01 0.01 0.01 0.01 0.01 0.01 0.01 0.02 0.02 0.02 0.02 0.03 0.04 0.06 0.07 0.08 0.12 0.13 0.15 0.14 0.14 0.14 0.12 0.10 0.09
0.00 0.00 0.00 0.01 0.00 0.00 0.00 0.00 0.00 0.00 0.00 0.00 0.00 0.00 0.00 0.01 0.01 0.01 0.01 0.02 0.02 0.02 0.01 0.01 0.01 0.01 0.01 0.02 0.02 0.02 0.03 0.04 0.06 0.06 0.07 0.10 0.11 0.15 0.16 0.14 0.13 0.10 0.07 0.07
0.00 0.00 0.01 0.01 0.01 0.01 0.01 0.00 0.00 0.00 0.00 0.00 0.00 0.01 0.00 0.01 0.01 0.01 0.02 0.03 0.02 0.01 0.01 0.00 0.00 0.01 0.01 0.02 0.02 0.02 0.02 0.04 0.06 0.07 0.07 0.09 0.11 0.15 0.17 0.15 0.13 0.10 0.08 0.08
MSLP
1021.15 1021.56 1022.05 1022.60 1023.18 1023.73 1024.15 1024.37 1024.31 1023.95 1023.31 1022.45 1021.47 1020.49 1019.60 1018.92 1018.45 1018.19 1018.07 1018.01 1017.92 1017.72 1017.36 1016.83 1016.18 1015.45 1014.71 1013.99 1013.32 1012.69 1012.05 1011.37 1010.60 1009.73 1008.76 1007.75 1006.74 1005.82 1005.04 1004.43 1003.99 1003.68 1003.44 1003.23
1021.55 1021.85 1022.24 1022.72 1023.28 1023.85 1024.35 1024.67 1024.73 1024.47 1023.89 1023.04 1022.01 1020.92 1019.90 1019.05 1018.42 1018.02 1017.80 1017.68 1017.56 1017.35 1017.00 1016.47 1015.80 1015.04 1014.24 1013.46 1012.72 1012.04 1011.37 1010.67 1009.90 1009.02 1008.04 1006.98 1005.90 1004.87 1003.96 1003.22 1002.66 1002.27 1002.00 1001.81
1021.72 1021.87 1022.14 1022.56 1023.11 1023.74 1024.35 1024.82 1025.03 1024.91 1024.43 1023.62 1022.56 1021.38 1020.22 1019.21 1018.42 1017.87 1017.54 1017.34 1017.18 1016.95 1016.59 1016.05 1015.35 1014.53 1013.67 1012.81 1012.00 1011.26 1010.55 1009.84 1009.07 1008.20 1007.21 1006.11 1004.97 1003.84 1002.81 1001.93 1001.25 1000.76 1000.45 1000.27
1021.76 1021.76 1021.91 1022.26 1022.82 1023.53 1024.27 1024.91 1025.30 1025.34 1024.97 1024.20 1023.12 1021.85 1020.56 1019.38 1018.41 1017.71 1017.26 1016.98 1016.77 1016.51 1016.13 1015.57 1014.83 1013.96 1013.02 1012.09 1011.20 1010.39 1009.65 1008.92 1008.15 1007.29 1006.30 1005.18 1003.99 1002.77 1001.63 1000.62 999.82 999.24 998.88 998.69
1021.83 1021.67 1021.72 1022.03 1022.61 1023.39 1024.27 1025.08 1025.63 1025.81 1025.53 1024.80 1023.68 1022.32 1020.88 1019.53 1018.39 1017.54 1016.96 1016.59 1016.32 1016.04 1015.64 1015.05 1014.28 1013.36 1012.35 1011.33 1010.38 1009.51 1008.72 1007.97 1007.19 1006.33 1005.35 1004.22 1002.98 1001.70 1000.46 999.34 998.44 997.77 997.34 997.14
1022.06 1021.80 1021.76 1022.03 1022.63 1023.49 1024.48 1025.41 1026.09 1026.36 1026.13 1025.39 1024.21 1022.73 1021.14 1019.61 1018.31 1017.30 1016.61 1016.15 1015.83 1015.52 1015.10 1014.51 1013.71 1012.75 1011.69 1010.61 1009.58 1008.65 1007.81 1007.03 1006.23 1005.36 1004.37 1003.22 1001.95 1000.62 999.30 998.11 997.12 996.38 995.90 995.68
1022.56 1022.23 1022.14 1022.40 1023.01 1023.92 1024.97 1025.97 1026.70 1027.00 1026.76 1025.95 1024.67 1023.05 1021.29 1019.59 1018.13 1016.98 1016.17 1015.64 1015.28 1014.96 1014.54 1013.95 1013.15 1012.17 1011.08 1009.94 1008.85 1007.85 1006.95 1006.12 1005.28 1004.38 1003.36 1002.18 1000.88 999.50 998.14 996.88 995.84 995.05 994.55 994.33
1023.34 1022.98 1022.88 1023.14 1023.76 1024.68 1025.74 1026.73 1027.43 1027.67 1027.33 1026.41 1024.98 1023.20 1021.27 1019.42 1017.80 1016.54 1015.64 1015.06 1014.67 1014.35 1013.95 1013.38 1012.60 1011.63 1010.51 1009.34 1008.20 1007.12 1006.14 1005.23 1004.31 1003.35 1002.26 1001.04 999.69 998.27 996.88 995.60 994.53 993.73 993.24 993.03
1024.29 1023.97 1023.90 1024.17 1024.79 1025.67 1026.68 1027.58 1028.17 1028.27 1027.78 1026.69 1025.09 1023.14 1021.06 1019.06 1017.33 1015.98 1015.02 1014.40 1014.01 1013.70 1013.33 1012.80 1012.05 1011.10 1009.98 1008.79 1007.58 1006.43 1005.35 1004.32 1003.29 1002.21 1001.03 999.72 998.31 996.85 995.43 994.15 993.09 992.32 991.87 991.72
1025.26 1025.03 1025.02 1025.31 1025.91 1026.73 1027.62 1028.37 1028.78 1028.68 1027.99 1026.71 1024.93 1022.84 1020.63 1018.54 1016.74 1015.33 1014.34 1013.71 1013.32 1013.04 1012.71 1012.21 1011.50 1010.57 1009.46 1008.24 1006.98 1005.73 1004.52 1003.34 1002.16 1000.92 999.59 998.17 996.67 995.16 993.73 992.46 991.44 990.74 990.36 990.30
1026.05 1025.94 1026.02 1026.35 1026.92 1027.65 1028.38 1028.93 1029.12 1028.79 1027.88 1026.41 1024.49 1022.29 1020.01 1017.88 1016.06 1014.65 1013.66 1013.04 1012.67 1012.40 1012.09 1011.63 1010.95 1010.03 1008.92 1007.67 1006.33 1004.98 1003.62 1002.26 1000.88 999.45 997.94 996.36 994.76 993.18 991.73 990.48 989.53 988.92 988.66 988.72
1026.52 1026.55 1026.73 1027.09 1027.63 1028.24 1028.80 1029.13 1029.07 1028.52 1027.41 1025.80 1023.79 1021.54 1019.27 1017.17 1015.40 1014.03 1013.07 1012.47 1012.11 1011.85 1011.55 1011.09 1010.41 1009.49 1008.36 1007.06 1005.65 1004.18 1002.66 1001.10 999.50 997.85 996.13 994.37 992.63 990.97 989.49 988.28 987.41 986.91 986.78 987.00
1026.60 1026.78 1027.05 1027.44 1027.92 1028.41 1028.78 1028.90 1028.61 1027.85 1026.60 1024.90 1022.87 1020.67 1018.49 1016.49 1014.82 1013.54 1012.64 1012.07 1011.71 1011.43 1011.11 1010.62 1009.91 1008.97 1007.81 1006.45 1004.96 1003.36 1001.68 999.93 998.10 996.21 994.27 992.32 990.43 988.68 987.17 985.98 985.18 984.80 984.83 985.21
1026.31 1026.62 1026.97 1027.38 1027.80 1028.15 1028.34 1028.24 1027.76 1026.85 1025.51 1023.80 1021.83 1019.75 1017.73 1015.91 1014.40 1013.25 1012.43 1011.89 1011.51 1011.19 1010.81 1010.26 1009.50 1008.51 1007.30 1005.89 1004.31 1002.61 1000.78 998.84 996.81 994.70 992.54 990.40 988.35 986.50 984.95 983.78 983.05 982.79 982.96 983.51
1025.76 1026.18 1026.59 1026.98 1027.31 1027.52 1027.53 1027.24 1026.60 1025.58 1024.21 1022.56 1020.73 1018.85 1017.06 1015.47 1014.16 1013.16 1012.43 1011.91 1011.52 1011.13 1010.66 1010.03 1009.20 1008.15 1006.88 1005.42 1003.79 1002.00 1000.06 997.98 995.78 993.48 991.13 988.82 986.62 984.67 983.07 981.90 981.23 981.05 981.35 982.06
1025.11 1025.58 1026.01 1026.35 1026.58 1026.63 1026.46 1026.00 1025.23 1024.15 1022.81 1021.27 1019.63 1018.00 1016.48 1015.16 1014.08 1013.24 1012.60 1012.11 1011.67 1011.21 1010.65 1009.93 1009.01 1007.90 1006.60 1005.11 1003.45 1001.62 999.62 997.45 995.13 992.69 990.20 987.74 985.43 983.38 981.72 980.54 979.89 979.79 980.18 981.01
1024.46 1024.96 1025.35 1025.61 1025.70 1025.58 1025.23 1024.62 1023.74 1022.64 1021.36 1019.96 1018.55 1017.19 1015.97 1014.92 1014.07 1013.40 1012.85 1012.38 1011.91 1011.37 1010.71 1009.90 1008.92 1007.78 1006.46 1004.98 1003.34 1001.52 999.51 997.31 994.94 992.42 989.84 987.28 984.87 982.74 981.03 979.82 979.18 979.11 979.57 980.48
1023.89 1024.36 1024.68 1024.82 1024.75 1024.45 1023.93 1023.17 1022.21 1021.10 1019.90 1018.67 1017.48 1016.40 1015.45 1014.67 1014.04 1013.52 1013.06 1012.61 1012.11 1011.51 1010.78 1009.90 1008.89 1007.74 1006.45 1005.03 1003.45 1001.70 999.75 997.58 995.22 992.69 990.07 987.46 984.99 982.81 981.04 979.80 979.13 979.06 979.54 980.49
1023.36 1023.76 1023.97 1023.97 1023.73 1023.26 1022.57 1021.69 1020.67 1019.57 1018.45 1017.38 1016.40 1015.56 1014.87 1014.32 1013.88 1013.50 1013.12 1012.69 1012.17 1011.54 1010.77 1009.87 1008.86 1007.75 1006.53 1005.20 1003.74 1002.11 1000.26 998.19 995.90 993.41 990.81 988.19 985.70 983.48 981.67 980.38 979.68 979.58 980.04 980.99
1022.76 1023.07 1023.15 1023.00 1022.60 1021.97 1021.14 1020.17 1019.11 1018.03 1017.00 1016.07 1015.28 1014.65 1014.17 1013.82 1013.53 1013.27 1012.96 1012.56 1012.05 1011.41 1010.64 1009.76 1008.80 1007.76 1006.66 1005.46 1004.15 1002.67 1000.97 999.04 996.85 994.45 991.91 989.32 986.84 984.61 982.77 981.44 980.69 980.53 980.95 981.87
1021.95 1022.15 1022.11 1021.82 1021.29 1020.54 1019.62 1018.59 1017.53 1016.49 1015.55 1014.75 1014.12 1013.66 1013.35 1013.15 1012.98 1012.81 1012.56 1012.21 1011.73 1011.12 1010.39 1009.57 1008.70 1007.78 1006.81 1005.77 1004.62 1003.31 1001.78 999.99 997.94 995.65 993.19 990.67 988.23 986.00 984.15 982.79 981.98 981.77 982.13 982.98
1020.81 1020.91 1020.76 1020.37 1019.75 1018.94 1017.99 1016.97 1015.94 1014.97 1014.13 1013.45 1012.96 1012.63 1012.44 1012.35 1012.28 1012.18 1011.99 1011.69 1011.26 1010.71 1010.06 1009.34 1008.58 1007.79 1006.97 1006.09 1005.10 1003.96 1002.58 1000.95 999.03 996.87 994.51 992.08 989.68 987.49 985.65 984.26 983.41 983.14 983.43 984.22
1019.29 1019.29 1019.07 1018.63 1018.00 1017.19 1016.28 1015.31 1014.37 1013.51 1012.78 1012.22 1011.84 1011.62 1011.53 1011.51 1011.51 1011.47 1011.34 1011.10 1010.74 1010.27 1009.72 1009.11 1008.48 1007.83 1007.15 1006.42 1005.58 1004.57 1003.34 1001.83 1000.04 997.99 995.75 993.40 991.09 988.95 987.13 985.74 984.87 984.55 984.77 985.49
1017.43 1017.36 1017.11 1016.68 1016.08 1015.35 1014.53 1013.69 1012.88 1012.15 1011.56 1011.12 1010.84 1010.71 1010.69 1010.73 1010.77 1010.78 1010.71 1010.53 1010.25 1009.88 1009.45 1008.96 1008.46 1007.94 1007.39 1006.77 1006.04 1005.14 1004.01 1002.60 1000.92 998.98 996.83 994.59 992.36 990.29 988.52 987.15 986.28 985.93 986.11 986.77
1015.36 1015.25 1015.01 1014.63 1014.12 1013.52 1012.85 1012.18 1011.54 1010.98 1010.53 1010.21 1010.03 1009.97 1010.01 1010.09 1010.17 1010.22 1010.20 1010.09 1009.90 1009.63 1009.31 1008.94 1008.55 1008.14 1007.69 1007.15 1006.50 1005.67 1004.60 1003.26 1001.66 999.80 997.76 995.62 993.49 991.51 989.81 988.49 987.64 987.28 987.44 988.06
1013.29 1013.17 1012.95 1012.66 1012.28 1011.83 1011.36 1010.88 1010.42 1010.04 1009.74 1009.54 1009.45 1009.45 1009.53 1009.64 1009.75 1009.84 1009.87 1009.83 1009.72 1009.55 1009.33 1009.07 1008.78 1008.44 1008.05 1007.57 1006.95 1006.15 1005.11 1003.82 1002.27 1000.50 998.55 996.51 994.50 992.63 991.02 989.78 988.97 988.65 988.80 989.40
Thickness
5556 5547 5543 5544 5539 5539 5532 5523 5517 5525 5531 5526 5525 5533 5541 5540 5532 5527 5523 5520 5519 5521 5521 5520 5520 5520 5522 5524 5526 5531 5536 5542 5546 5551 5558 5563 5571 5580 5587 5594 5603 5609 5614 5619
5543 5542 5547 5544 5537 5531 5523 5514 5509 5519 5523 5521 5516 5523 5532 5531 5526 5522 5517 5513 5510 5511 5512 5511 5510 5509 5511 5514 5516 5520 5525 5529 5534 5539 5546 5551 5559 5568 5576 5583 5589 5596 5602 5608
5543 5545 5544 5538 5530 5523 5520 5509 5507 5508 5510 5507 5499 5516 5523 5525 5520 5515 5509 5505 5501 5500 5500 5501 5501 5502 5503 5504 5505 5510 5513 5518 5523 5529 5535 5540 5545 5553 5562 5570 5577 5583 5590 5596
5533 5535 5535 5530 5524 5519 5513 5516 5508 5502 5487 5480 5482 5484 5511 5511 5507 5505 5500 5494 5490 5490 5490 5492 5493 5494 5495 5496 5497 5499 5502 5507 5514 5519 5522 5527 5533 5542 5552 5559 5565 5572 5578 5585
5529 5529 5525 5522 5521 5515 5507 5508 5499 5491 5476 5461 5466 5457 5496 5495 5494 5497 5493 5488 5484 5482 5481 5483 5484 5485 5487 5488 5489 5491 5494 5499 5505 5509 5513 5517 5523 5531 5540 5547 5552 5559 5567 5574
5520 5520 5519 5517 5516 5509 5501 5493 5484 5467 5455 5452 5462 5451 5476 5480 5486 5488 5486 5481 5478 5476 5475 5475 5476 5477 5480 5481 5481 5483 5486 5491 5495 5499 5504 5508 5513 5520 5528 5536 5541 5550 5558 5566
5512 5514 5512 5510 5504 5498 5486 5472 5464 5457 5440 5450 5459 5451 5472 5488 5484 5479 5477 5473 5471 5468 5467 5468 5469 5470 5471 5473 5474 5475 5477 5482 5486 5490 5496 5501 5505 5511 5519 5527 5534 5540 5549 5558
5497 5502 5504 5498 5495 5485 5475 5466 5452 5445 5438 5446 5449 5451 5476 5485 5480 5474 5469 5465 5463 5462 5461 5460 5460 5460 5462 5463 5464 5466 5469 5473 5478 5482 5488 5493 5499 5505 5511 5519 5526 5533 5542 5550
5481 5488 5493 5489 5486 5479 5464 5453 5448 5426 5410 5409 5434 5442 5464 5480 5476 5470 5463 5459 5456 5455 5454 5453 5454 5453 5453 5454 5455 5457 5460 5465 5469 5474 5480 5486 5493 5498 5504 5512 5519 5526 5534 5542
5476 5473 5478 5475 5475 5469 5460 5444 5426 5417 5410 5413 5424 5428 5452 5465 5468 5465 5458 5452 5451 5449 5448 5447 5448 5448 5448 5447 5447 5449 5453 5457 5461 5466 5471 5479 5485 5491 5498 5504 5511 5518 5526 5533
5466 5459 5462 5460 5461 5457 5444 5435 5426 5411 5403 5399 5407 5448 5464 5457 5458 5453 5449 5446 5444 5443 5442 5441 5441 5441 5441 5441 5442 5444 5447 5451 5455 5460 5466 5471 5478 5485 5491 5498 5505 5511 5518 5525
5455 5443 5442 5447 5451 5449 5442 5432 5419 5412 5401 5385 5386 5442 5471 5458 5450 5444 5442 5441 5439 5437 5436 5435 5435 5435 5435 5435 5437 5439 5442 5445 5449 5454 5460 5466 5472 5478 5484 5491 5498 5505 5512 5518
5447 5436 5439 5453 5441 5430 5425 5419 5412 5406 5396 5386 5390 5440 5464 5449 5444 5440 5435 5434 5431 5430 5429 5429 5428 5428 5428 5429 5431 5434 5437 5440 5444 5449 5455 5460 5465 5470 5477 5485 5494 5500 5507 5514
5448 5432 5439 5454 5452 5428 5416 5413 5403 5398 5395 5395 5405 5434 5455 5449 5442 5438 5433 5428 5424 5422 5422 5421 5421 5421 5422 5423 5425 5427 5431 5435 5439 5444 5449 5453 5459 5466 5473 5480 5488 5495 5503 5510
5438 5432 5425 5433 5438 5429 5427 5425 5411 5402 5405 5404 5423 5424 5444 5443 5435 5429 5425 5422 5420 5418 5417 5417 5415 5414 5415 5417 5419 5421 5424 5428 5433 5438 5443 5449 5457 5464 5470 5477 5484 5492 5500 5509
5425 5424 5420 5424 5430 5424 5428 5435 5427 5419 5413 5409 5414 5425 5442 5434 5426 5420 5417 5415 5413 5412 5413 5412 5411 5410 5409 5410 5413 5416 5418 5423 5428 5433 5438 5445 5453 5461 5467 5475 5482 5490 5498 5506
5415 5411 5408 5414 5416 5411 5422 5438 5433 5425 5420 5411 5411 5426 5431 5423 5421 5416 5412 5410 5407 5406 5407 5406 5405 5404 5404 5405 5407 5409 5414 5418 5422 5427 5434 5440 5446 5455 5463 5471 5479 5487 5495 5503
5409 5403 5399 5399 5394 5402 5443 5437 5431 5423 5421 5415 5416 5419 5418 5416 5415 5410 5406 5402 5401 5401 5400 5399 5397 5398 5399 5400 5402 5404 5408 5411 5416 5421 5427 5434 5440 5449 5458 5466 5475 5482 5490 5498
5409 5401 5392 5386 5380 5398 5425 5429 5418 5408 5413 5418 5412 5413 5412 5408 5402 5405 5406 5401 5398 5396 5394 5391 5390 5390 5392 5394 5395 5397 5400 5403 5408 5413 5419 5426 5433 5442 5451 5460 5468 5477 5485 5493
5395 5393 5387 5379 5375 5389 5425 5423 5413 5403 5401 5417 5408 5405 5402 5395 5388 5404 5406 5399 5394 5391 5388 5386 5384 5384 5385 5387 5388 5389 5393 5396 5400 5405 5411 5418 5425 5434 5443 5453 5462 5470 5478 5487
5380 5378 5381 5378 5374 5393 5416 5410 5402 5393 5407 5414 5405 5399 5394 5387 5389 5396 5395 5392 5389 5385 5383 5381 5378 5377 5378 5380 5380 5382 5385 5389 5393 5398 5405 5412 5419 5427 5437 5446 5455 5463 5472 5481
5378 5370 5368 5369 5369 5392 5411 5396 5395 5403 5407 5404 5399 5394 5388 5386 5387 5386 5385 5383 5380 5378 5376 5374 5371 5370 5371 5372 5372 5375 5378 5383 5387 5392 5398 5405 5413 5421 5431 5439 5448 5457 5466 5475
5380 5386 5381 5382 5400 5408 5400 5399 5400 5395 5393 5393 5389 5387 5382 5380 5379 5378 5376 5373 5371 5369 5367 5365 5363 5363 5364 5364 5364 5367 5372 5376 5381 5386 5391 5399 5407 5415 5424 5432 5443 5452 5460 5469
5374 5377 5372 5372 5390 5394 5391 5389 5389 5386 5383 5383 5381 5379 5375 5372 5371 5368 5366 5365 5363 5361 5359 5357 5355 5355 5356 5357 5358 5360 5365 5369 5374 5379 5386 5393 5401 5410 5418 5426 5436 5445 5453 5462
5378 5366 5364 5368 5381 5381 5386 5384 5383 5381 5377 5374 5373 5371 5368 5364 5363 5360 5358 5356 5355 5354 5352 5349 5347 5347 5349 5350 5352 5354 5357 5362 5367 5373 5380 5388 5396 5403 5412 5422 5430 5438 5446 5455
5373 5368 5366 5382 5384 5375 5381 5382 5378 5373 5371 5369 5365 5362 5359 5356 5354 5352 5349 5348 5346 5345 5343 5342 5340 5341 5341 5342 5345 5348 5351 5355 5360 5367 5375 5381 5389 5397 5405 5415 5425 5433 5442 5451